Moncks Corner, SC

3:11 PM EDT on May 21, 2018 (GMT -0400)
Moncks Corner

Weather History for KMKS - November, 2013

Change the Weather History Date:

Sunday, November 3, 2013

  Actual Average (KCHS) Record (KCHS)
Temperature  
Mean Temperature 58 °F -  
Max Temperature 66 °F 74 °F 87 °F (1972)
Min Temperature 50 °F 53 °F 27 °F (1954)
Degree Days  
Heating Degree Days 7    
Growing Degree Days 8 (Base 50)    
Moisture  
Dew Point 46 °F    
Average Humidity 66    
Maximum Humidity 100    
Minimum Humidity 43    
Precipitation  
Precipitation 0.00 in - - ()
Sea Level Pressure  
Sea Level Pressure 30.12 in    
Wind  
Wind Speed 4 mph (NNE)    
Max Wind Speed 16 mph    
Max Gust Speed 21 mph    
Visibility 9 miles    
Events      
Averages and records for this station are not official NWS values.
T = Trace of Precipitation, MM = Missing Value Source: NWS Daily Summary

Daily Weather History Graph

Daily Weather History Graph

Search for Another Location

Airport or City:

Astronomy

Nov. 03, 2013 Rise Set
Actual Time 6:40 AM EST 5:26 PM EST
Civil Twilight 6:14 AM EST 5:52 PM EST
Nautical Twilight 5:45 AM EST 6:21 PM EST
Astronomical Twilight 5:16 AM EST 6:50 PM EST
Moon 6:41 AM EST (11/3) 5:41 PM EST (11/3)
Length of Visible Light 11h 37m
Length of Day
10h 46m
New Moon, 0% of the Moon is Illuminated
Nov 3
New Moon
Nov 10
First Quarter
Nov 17
Full
Nov 25
Last Quarter
Dec 2
New

Hourly Weather History & Observations

Time (EST) Temp. Dew Point Humidity Pressure Visibility Wind Dir Wind Speed Gust Speed Precip Events Conditions
12:15 AM 55.4 °F 51.8 °F 88% 29.97 in 10.0 mi Calm Calm - N/A   Clear
12:35 AM 51.8 °F 51.8 °F 100% 29.96 in 10.0 mi Calm Calm - N/A   Clear
12:55 AM 53.6 °F 50.0 °F 88% 29.97 in 10.0 mi Calm Calm - N/A   Clear
1:15 AM 51.8 °F 50.0 °F 94% 29.96 in 10.0 mi Calm Calm - N/A   Clear
1:35 AM 51.8 °F 50.0 °F 94% 29.97 in 10.0 mi Calm Calm - N/A   Clear
1:55 AM 50.0 °F 50.0 °F 100% 29.97 in 10.0 mi Calm Calm - N/A   Clear
1:15 AM 50.0 °F 50.0 °F 100% 29.98 in 7.0 mi Calm Calm - N/A   Clear
1:35 AM 51.8 °F 50.0 °F 94% 29.98 in 10.0 mi Calm Calm - N/A   Clear
1:55 AM 59.0 °F 48.2 °F 67% 29.98 in 10.0 mi North 5.8 mph - N/A   Clear
2:15 AM 59.0 °F 48.2 °F 67% 29.99 in 10.0 mi North 5.8 mph - N/A   Clear
2:35 AM 57.2 °F 48.2 °F 72% 29.99 in 10.0 mi North 5.8 mph - N/A   Clear
2:55 AM 57.2 °F 48.2 °F 72% 30.00 in 10.0 mi North 8.1 mph - N/A   Clear
3:15 AM 57.2 °F 48.2 °F 72% 30.00 in 10.0 mi North 5.8 mph - N/A   Clear
3:35 AM 57.2 °F 46.4 °F 67% 30.01 in 10.0 mi North 5.8 mph - N/A   Clear
3:55 AM 57.2 °F 46.4 °F 67% 30.02 in 10.0 mi North 9.2 mph - N/A   Clear
4:15 AM 57.2 °F 46.4 °F 67% 30.02 in 7.0 mi North 6.9 mph - N/A   Clear
4:35 AM 57.2 °F 46.4 °F 67% 30.03 in 10.0 mi North 6.9 mph 17.3 mph N/A   Clear
4:55 AM 57.2 °F 46.4 °F 67% 30.04 in 10.0 mi North 5.8 mph - N/A   Clear
5:15 AM 55.4 °F 46.4 °F 72% 30.05 in 10.0 mi NNE 6.9 mph - N/A   Clear
5:35 AM 55.4 °F 46.4 °F 72% 30.06 in 10.0 mi NNE 8.1 mph 18.4 mph N/A   Clear
5:55 AM 55.4 °F 44.6 °F 67% 30.07 in 10.0 mi North 6.9 mph - N/A   Clear
6:15 AM 55.4 °F 44.6 °F 67% 30.07 in 10.0 mi NNE 8.1 mph - N/A   Clear
6:35 AM 55.4 °F 44.6 °F 67% 30.08 in 10.0 mi NNE 6.9 mph - N/A   Clear
6:55 AM 55.4 °F 44.6 °F 67% 30.09 in 10.0 mi NNE 8.1 mph - N/A   Clear
7:15 AM 55.4 °F 44.6 °F 67% 30.11 in 10.0 mi NNE 4.6 mph - N/A   Clear
7:35 AM 55.4 °F 44.6 °F 67% 30.12 in 10.0 mi NNE 8.1 mph - N/A   Clear
7:55 AM 55.4 °F 44.6 °F 67% 30.13 in 7.0 mi NNE 10.4 mph - N/A   Clear
8:15 AM 55.4 °F 44.6 °F 67% 30.15 in 7.0 mi North 8.1 mph - N/A   Clear
8:35 AM 57.2 °F 44.6 °F 63% 30.16 in 7.0 mi NNE 8.1 mph - N/A   Clear
8:55 AM 57.2 °F 44.6 °F 63% 30.16 in 7.0 mi NNE 9.2 mph - N/A   Clear
9:15 AM 59.0 °F 44.6 °F 59% 30.17 in 7.0 mi NNE 11.5 mph - N/A   Clear
9:35 AM 59.0 °F 44.6 °F 59% 30.18 in 10.0 mi NNE 9.2 mph 19.6 mph N/A   Clear
9:55 AM 60.8 °F 44.6 °F 55% 30.18 in 10.0 mi NNE 6.9 mph 16.1 mph N/A   Clear
10:15 AM 60.8 °F 44.6 °F 55% 30.18 in 10.0 mi NNE 10.4 mph 17.3 mph N/A   Clear
10:35 AM 62.6 °F 44.6 °F 52% 30.19 in 10.0 mi NE 16.1 mph 20.7 mph N/A   Clear
10:55 AM 64.4 °F 44.6 °F 49% 30.20 in 10.0 mi NNE 9.2 mph 17.3 mph N/A   Clear
11:15 AM 64.4 °F 44.6 °F 49% 30.20 in 7.0 mi NNE 10.4 mph - N/A   Clear
11:35 AM 64.4 °F 42.8 °F 45% 30.19 in 10.0 mi North 8.1 mph 17.3 mph N/A   Clear
11:55 AM 64.4 °F 42.8 °F 45% 30.19 in 7.0 mi NNE 8.1 mph - N/A   Clear
12:15 PM 64.4 °F 42.8 °F 45% 30.19 in 7.0 mi NNE 4.6 mph - N/A   Clear
12:35 PM 64.4 °F 44.6 °F 49% 30.18 in 7.0 mi North 6.9 mph - N/A   Clear
12:55 PM 64.4 °F 42.8 °F 45% 30.18 in 7.0 mi North 8.1 mph - N/A   Clear
1:15 PM 66.2 °F 42.8 °F 43% 30.17 in 7.0 mi North 5.8 mph - N/A   Clear
1:35 PM 66.2 °F 44.6 °F 46% 30.17 in 7.0 mi NNW 6.9 mph - N/A   Clear
1:55 PM 66.2 °F 44.6 °F 46% 30.17 in 10.0 mi North 6.9 mph - N/A   Clear
2:15 PM 66.2 °F 44.6 °F 46% 30.17 in 10.0 mi NNE 9.2 mph - N/A   Clear
2:55 PM 66.2 °F 44.6 °F 46% 30.17 in 10.0 mi North 10.4 mph - N/A   Clear
3:35 PM 66.2 °F 42.8 °F 43% 30.17 in 10.0 mi North 8.1 mph - N/A   Clear
4:15 PM 66.2 °F 42.8 °F 43% 30.18 in 10.0 mi NNE 5.8 mph - N/A   Clear
4:55 PM 64.4 °F 42.8 °F 45% 30.18 in 7.0 mi North 3.5 mph - N/A   Clear
5:35 PM 60.8 °F 44.6 °F 55% 30.20 in 7.0 mi NNE 5.8 mph - N/A   Clear
5:55 PM 59.0 °F 44.6 °F 59% 30.20 in 10.0 mi NNE 3.5 mph - N/A   Clear
6:15 PM 59.0 °F 44.6 °F 59% 30.21 in 10.0 mi Calm Calm - N/A   Clear
6:35 PM 53.6 °F 48.2 °F 82% 30.22 in 10.0 mi Calm Calm - N/A   Clear
6:55 PM 51.8 °F 46.4 °F 82% 30.23 in 10.0 mi Calm Calm - N/A   Clear
7:35 PM 50.0 °F 46.4 °F 87% 30.25 in 10.0 mi Calm Calm - N/A   Clear
8:15 PM 51.8 °F 46.4 °F 82% 30.26 in 10.0 mi Calm Calm - N/A   Clear
8:55 PM 55.4 °F 44.6 °F 67% 30.27 in 10.0 mi NNE 3.5 mph - N/A   Clear
9:35 PM 55.4 °F 44.6 °F 67% 30.29 in 7.0 mi NNE 4.6 mph - N/A   Clear
10:15 PM 53.6 °F 44.6 °F 72% 30.30 in 10.0 mi NE 3.5 mph - N/A   Clear
10:55 PM 53.6 °F 44.6 °F 72% 30.31 in 10.0 mi Calm Calm - N/A   Clear